FW3211 Weather Reports


Display with metric or nautical units.
time (UTC)temp
F
wind
direction
speed
MPH
gust
MPH
rain 1hr
in
rain 24hr
in
rain mn
in
humidity
%
barometer
mb
20260508142909 70 308 1.0 4.0 0.00 0.00 0.00 59 1015.2
20260508142116 70 321 1.0 3.0 0.00 0.00 0.00 57 1015.3
20260508141627 70 13 2.0 4.0 0.00 0.00 0.00 54 1015.3
20260508141112 70 23 1.0 4.0 0.00 0.00 0.00 56 1015.4
20260508140612 70 81 1.0 3.0 0.00 0.00 0.00 56 1015.4
20260508140132 70 79 2.0 4.0 0.00 0.00 0.00 58 1015.4
20260508135612 70 105 2.0 5.0 0.00 0.00 0.00 56 1015.4
20260508135111 70 33 1.0 5.0 0.00 0.00 0.00 58 1015.4
20260508134857 70 98 1.0 4.0 0.00 0.00 0.00 58 1015.4
20260508134429 70 189 1.0 3.0 0.00 0.00 0.00 59 1015.6
20260508134132 70 148 1.0 4.0 0.00 0.00 0.00 57 1015.5
20260508133121 70 228 1.0 3.0 0.00 0.00 0.00 58 1015.6
20260508132610 69 97 1.0 4.0 0.00 0.00 0.00 55 1015.6
20260508132109 69 41 1.0 4.0 0.00 0.00 0.00 57 1015.6
20260508131610 69 131 1.0 3.0 0.00 0.00 0.00 57 1015.6
20260508131110 69 131 1.0 4.0 0.00 0.00 0.00 57 1015.6
20260508130611 69 23 1.0 4.0 0.00 0.00 0.00 57 1015.6
20260508130122 69 83 1.0 4.0 0.00 0.00 0.00 54 1015.6
20260508125608 68 76 1.0 4.0 0.00 0.00 0.00 50 1015.6
20260508125107 68 162 1.0 4.0 0.00 0.00 0.00 50 1015.6
20260508124606 69 24 1.0 2.0 0.00 0.00 0.00 55 1015.6
20260508124107 68 79 1.0 4.0 0.00 0.00 0.00 51 1015.6
20260508123605 68 79 1.0 5.0 0.00 0.00 0.00 53 1015.6
20260508123105 69 300 2.0 5.0 0.00 0.00 0.00 54 1015.7
20260508122607 69 85 2.0 4.0 0.00 0.00 0.00 48 1015.6
20260508122348 69 150 1.0 4.0 0.00 0.00 0.00 46 1015.6
20260508121605 69 94 2.0 7.0 0.00 0.00 0.00 48 1015.7
20260508121105 69 101 3.0 7.0 0.00 0.00 0.00 48 1015.7
20260508120606 69 109 3.0 8.0 0.00 0.00 0.00 49 1015.7
20260508120343 69 122 3.0 8.0 0.00 0.00 0.00 49 1015.6
20260508115848 69 177 3.0 8.0 0.00 0.00 0.00 50 1015.6
20260508115109 69 155 3.0 8.0 0.00 0.00 0.00 50 1015.6
20260508114606 69 170 2.0 8.0 0.00 0.00 0.00 49 1015.6
20260508114107 69 137 2.0 8.0 0.00 0.00 0.00 50 1015.6
20260508113607 69 173 2.0 6.0 0.00 0.00 0.00 49 1015.6
20260508113347 69 199 3.0 7.0 0.00 0.00 0.00 48 1015.6
20260508112607 69 168 3.0 8.0 0.00 0.00 0.00 47 1015.6
20260508112106 69 128 3.0 8.0 0.00 0.00 0.00 51 1015.6
20260508111611 68 140 2.0 6.0 0.00 0.00 0.00 51 1015.7
20260508111108 68 140 2.0 7.0 0.00 0.00 0.00 52 1015.7
20260508110845 68 91 2.0 7.0 0.00 0.00 0.00 50 1015.7
20260508110112 68 179 2.0 9.0 0.00 0.00 0.00 51 1015.7
20260508105851 68 118 3.0 9.0 0.00 0.00 0.00 52 1015.7
20260508105105 68 125 4.0 9.0 0.00 0.00 0.00 52 1015.6
20260508104603 68 90 3.0 9.0 0.00 0.00 0.00 50 1015.7
20260508104103 68 106 3.0 8.0 0.00 0.00 0.00 54 1015.8
20260508103608 68 115 3.0 8.0 0.00 0.00 0.00 54 1015.7
20260508103104 68 57 3.0 8.0 0.00 0.00 0.00 53 1015.8
20260508102604 68 191 2.0 6.0 0.00 0.00 0.00 55 1015.7
20260508102351 69 156 2.0 5.0 0.00 0.00 0.00 54 1015.7
20260508101604 69 139 1.0 4.0 0.00 0.00 0.00 54 1015.7
20260508101105 69 110 2.0 4.0 0.00 0.00 0.00 55 1015.7
20260508100604 69 153 2.0 4.0 0.00 0.00 0.00 56 1015.7
20260508100104 68 126 1.0 4.0 0.00 0.00 0.00 54 1015.7
20260508095605 68 127 1.0 4.0 0.00 0.00 0.00 55 1015.7
20260508095105 69 143 1.0 3.0 0.00 0.00 0.00 54 1015.6
20260508094850 69 143 1.0 3.0 0.00 0.00 0.00 54 1015.6
20260508094103 68 142 1.0 2.0 0.00 0.00 0.00 52 1015.6
20260508093843 68 142 1.0 3.0 0.00 0.00 0.00 53 1015.6
20260508093105 68 141 1.0 4.0 0.00 0.00 0.00 53 1015.6
20260508092607 68 141 1.0 4.0 0.00 0.00 0.00 53 1015.6
20260508092105 68 142 1.0 4.0 0.00 0.00 0.00 54 1015.6
20260508091604 68 107 1.0 4.0 0.00 0.00 0.00 56 1015.6
20260508091104 68 151 1.0 3.0 0.00 0.00 0.00 57 1015.5
20260508090854 67 151 1.0 3.0 0.00 0.00 0.00 56 1015.5
20260508090107 67 151 1.0 3.0 0.00 0.00 0.00 57 1015.4
20260508085608 67 152 2.0 4.0 0.00 0.00 0.00 58 1015.4
20260508085106 67 152 2.0 4.0 0.00 0.00 0.00 58 1015.4
20260508084849 67 139 1.0 3.0 0.00 0.00 0.00 59 1015.4
20260508084103 68 139 1.0 4.0 0.00 0.00 0.00 56 1015.4
20260508083601 68 91 1.0 4.0 0.00 0.00 0.00 60 1015.3
20260508083059 68 131 1.0 4.0 0.00 0.00 0.00 56 1015.3
20260508082600 68 133 1.0 4.0 0.00 0.00 0.00 56 1015.2
20260508082059 68 78 1.0 5.0 0.00 0.00 0.00 54 1015.2
20260508081900 68 108 1.0 3.0 0.00 0.00 0.00 55 1015.0
20260508081856 68 144 1.0 5.0 0.00 0.00 0.00 58 1015.2
20260508080639 68 102 1.0 2.0 0.00 0.00 0.00 55 1015.0
20260508080628 68 103 1.0 3.0 0.00 0.00 0.00 58 1015.0
20260508075555 67 102 1.0 4.0 0.00 0.00 0.00 58 1014.9
20260508075057 67 101 1.0 4.0 0.00 0.00 0.00 58 1014.9
20260508074556 67 118 1.0 3.0 0.00 0.00 0.00 60 1014.9
20260508074051 67 118 1.0 3.0 0.00 0.00 0.00 58 1014.8
20260508073552 67 136 1.0 2.0 0.00 0.00 0.00 58 1014.8
20260508073428 66 136 1.0 2.0 0.00 0.00 0.00 59 1014.8
20260508073126 66 136 1.0 2.0 0.00 0.00 0.00 60 1014.8
20260508072051 66 136 1.0 3.0 0.00 0.02 0.00 60 1014.8
20260508071552 66 136 1.0 3.0 0.00 0.03 0.00 62 1014.8
20260508071053 66 73 1.0 3.0 0.00 0.03 0.00 61 1014.8
20260508070551 66 69 1.0 3.0 0.00 0.03 0.00 59 1014.8
20260508070051 66 123 1.0 3.0 0.00 0.03 0.00 59 1014.8
20260508065549 66 125 1.0 2.0 0.00 0.03 0.00 59 1014.8
20260508065050 65 99 0.0 2.0 0.00 0.03 0.00 59 1014.8
20260508064825 65 99 1.0 3.0 0.00 0.03 0.00 59 1014.7
20260508064043 65 99 1.0 3.0 0.00 0.03 0.00 60 1014.7
20260508063546 64 100 1.0 3.0 0.00 0.03 0.00 60 1014.7
20260508063042 64 100 1.0 3.0 0.00 0.03 0.00 61 1014.7
20260508062920 64 113 1.0 4.0 0.00 0.03 0.00 60 1014.7
20260508062916 64 99 1.0 4.0 0.00 0.03 0.00 60 1014.7
20260508061546 64 359 1.0 3.0 0.00 0.03 0.00 61 1014.6
20260508061040 64 83 1.0 3.0 0.00 0.03 0.00 63 1014.6
20260508060541 64 231 1.0 5.0 0.00 0.03 0.00 61 1014.5
20260508060039 64 23 1.0 5.0 0.00 0.03 0.00 60 1014.5
20260508055536 64 115 1.0 3.0 0.00 0.03 0.00 58 1014.5
20260508055033 63 120 1.0 3.0 0.00 0.03 0.00 57 1014.5
20260508054535 62 14 1.0 3.0 0.00 0.03 0.00 59 1014.5
20260508054034 61 118 1.0 6.0 0.00 0.03 0.00 62 1014.5
20260508053535 61 118 2.0 6.0 0.00 0.03 0.00 59 1014.5
20260508053034 61 336 1.0 4.0 0.00 0.03 0.00 63 1014.4
20260508052533 61 298 1.0 4.0 0.00 0.03 0.00 64 1014.4
20260508052032 60 359 1.0 4.0 0.00 0.03 0.00 61 1014.3
20260508051530 60 4 1.0 4.0 0.00 0.03 0.00 63 1014.3
20260508051318 60 25 2.0 5.0 0.00 0.03 0.00 63 1014.3
20260508050529 60 309 2.0 5.0 0.00 0.03 0.00 63 1014.3
20260508050030 60 314 2.0 5.0 0.00 0.03 0.00 63 1014.1
20260508045534 60 347 2.0 8.0 0.00 0.05 0.00 62 1014.1
20260508045327 60 18 2.0 8.0 0.00 0.05 0.00 62 1014.0
20260508044620 59 272 2.0 7.0 0.00 0.05 0.00 63 1013.9
20260508044600 59 100 2.0 7.0 0.00 0.05 0.00 62 1013.9
20260508043525 59 318 2.0 5.0 0.00 0.05 0.00 64 1013.9
20260508043026 59 33 2.0 4.0 0.00 0.05 0.00 65 1013.8
20260508042525 58 288 2.0 4.0 0.00 0.05 0.00 65 1013.8
20260508042031 58 354 2.0 4.0 0.00 0.05 0.00 66 1013.7
20260508041526 58 337 2.0 5.0 0.00 0.05 0.00 66 1013.7
20260508041332 58 354 2.0 5.0 0.00 0.05 0.00 65 1013.7
20260508040525 58 14 2.0 4.0 0.00 0.05 0.00 66 1013.6
20260508040024 58 301 2.0 4.0 0.00 0.05 0.00 66 1013.7
20260508035522 58 342 2.0 4.0 0.00 0.05 0.00 66 1013.6
20260508035108 58 332 2.0 4.0 0.00 0.05 0.00 67 1013.6
20260508035047 58 315 1.0 3.0 0.00 0.05 0.00 67 1013.6
20260508034011 58 30 2.0 4.0 0.00 0.05 0.00 67 1013.6
20260508033512 58 339 2.0 4.0 0.00 0.05 0.00 67 1013.6
20260508033014 58 349 2.0 4.0 0.00 0.05 0.00 67 1013.6
20260508032519 58 326 2.0 4.0 0.00 0.05 0.00 67 1013.6
20260508032012 58 288 2.0 4.0 0.00 0.05 0.00 66 1013.5
20260508031510 58 332 1.0 4.0 0.00 0.05 0.00 67 1013.5
20260508031010 58 8 1.0 3.0 0.00 0.05 0.00 67 1013.6
20260508030509 58 318 1.0 3.0 0.00 0.05 0.00 67 1013.6
20260508030007 58 318 2.0 3.0 0.00 0.05 0.00 66 1013.7
20260508025508 58 318 2.0 3.0 0.00 0.05 0.00 66 1013.7
20260508025006 58 291 2.0 3.0 0.00 0.05 0.00 66 1013.7
20260508024749 58 16 1.0 4.0 0.00 0.05 0.00 66 1013.7
20260508024008 58 308 2.0 4.0 0.00 0.05 0.00 65 1013.7
20260508023502 58 291 2.0 3.0 0.00 0.05 0.00 66 1013.7
20260508022954 58 340 2.0 4.0 0.00 0.05 0.00 66 1013.7
20260508022456 58 19 2.0 6.0 0.00 0.05 0.00 65 1013.8
20260508021950 58 284 2.0 6.0 0.00 0.05 0.00 66 1013.8
20260508021450 58 354 2.0 5.0 0.00 0.05 0.00 67 1013.9
20260508020947 58 295 2.0 5.0 0.00 0.05 0.00 66 1013.9
20260508020449 58 276 2.0 4.0 0.00 0.05 0.00 67 1014.0
20260508020229 58 18 2.0 4.0 0.00 0.05 0.00 66 1014.0
20260508015445 58 296 2.0 4.0 0.00 0.05 0.00 66 1014.0
20260508014942 58 326 2.0 4.0 0.00 0.05 0.00 67 1014.0
20260508014441 58 354 2.0 4.0 0.00 0.05 0.00 66 1014.0
20260508013939 58 286 2.0 3.0 0.00 0.05 0.00 66 1014.1
20260508013723 58 301 2.0 4.0 0.00 0.05 0.00 66 1014.1
20260508012936 58 289 2.0 4.0 0.00 0.05 0.00 65 1014.1
20260508012438 58 310 2.0 6.0 0.00 0.05 0.00 65 1014.1
20260508011935 58 248 2.0 6.0 0.00 0.05 0.00 65 1014.1
20260508011435 58 320 2.0 6.0 0.00 0.05 0.00 66 1014.3
20260508010936 57 298 2.0 4.0 0.00 0.05 0.00 66 1014.3
20260508010435 57 316 2.0 4.0 0.00 0.05 0.00 66 1014.3
20260508005943 57 354 2.0 4.0 0.00 0.05 0.00 67 1014.3
20260508005436 57 332 2.0 4.0 0.00 0.05 0.00 67 1014.3
20260508004936 57 335 2.0 4.0 0.00 0.05 0.00 66 1014.3
20260508004434 57 310 2.0 5.0 0.00 0.05 0.00 66 1014.4
20260508003933 57 45 2.0 5.0 0.00 0.05 0.00 66 1014.4
20260508003508 56 18 2.0 4.0 0.00 0.05 0.00 68 1014.5
20260508003453 56 4 2.0 4.0 0.00 0.05 0.00 67 1014.4
20260508002432 55 326 2.0 4.0 0.00 0.05 0.00 68 1014.5
20260508001934 55 325 1.0 3.0 0.00 0.05 0.00 69 1014.6
20260508001432 55 325 1.0 3.0 0.00 0.05 0.00 69 1014.6
20260508000934 55 325 2.0 4.0 0.00 0.05 0.00 68 1014.7
20260508000434 55 325 2.0 4.0 0.00 0.05 0.00 69 1014.7
20260507235932 55 320 2.0 3.0 0.00 0.05 0.00 68 1014.7
20260507235433 55 319 2.0 4.0 0.00 0.05 0.00 69 1014.9
20260507234936 55 319 2.0 4.0 0.00 0.05 0.00 69 1014.9
20260507234439 55 319 2.0 3.0 0.00 0.05 0.00 69 1014.9
20260507233935 55 307 2.0 3.0 0.00 0.05 0.00 70 1014.9
20260507233433 55 307 2.0 4.0 0.00 0.05 0.00 70 1015.0
20260507232934 55 340 2.0 4.0 0.00 0.05 0.00 70 1015.1
20260507232431 55 331 2.0 4.0 0.00 0.05 0.00 70 1015.2
20260507231933 55 326 2.0 3.0 0.00 0.05 0.00 71 1015.2
20260507231727 55 324 2.0 3.0 0.00 0.05 0.00 71 1015.2
20260507230932 54 345 2.0 3.0 0.00 0.05 0.00 72 1015.3
20260507230544 54 345 2.0 3.0 0.00 0.05 0.00 72 1015.4
20260507230535 54 344 2.0 3.0 0.00 0.05 0.00 72 1015.3
20260507230523 54 345 2.0 2.0 0.00 0.05 0.00 72 1015.4
20260507224933 54 344 2.0 2.0 0.00 0.05 0.00 72 1015.4
20260507224433 54 344 1.0 2.0 0.00 0.05 0.00 72 1015.4
20260507223935 54 344 1.0 2.0 0.00 0.05 0.00 72 1015.4
20260507223717 54 344 2.0 3.0 0.00 0.05 0.00 73 1015.4
20260507222937 54 344 2.0 3.0 0.00 0.05 0.00 74 1015.4
20260507222435 54 344 2.0 3.0 0.00 0.05 0.00 74 1015.4
20260507221937 54 344 1.0 3.0 0.00 0.05 0.00 75 1015.3
20260507221435 54 344 1.0 2.0 0.00 0.05 0.00 74 1015.4
20260507220933 54 344 1.0 2.0 0.00 0.05 0.00 73 1015.4
20260507220436 54 344 2.0 3.0 0.00 0.05 0.00 73 1015.4
20260507215932 54 344 2.0 3.0 0.00 0.05 0.05 74 1015.3
20260507215432 54 344 2.0 3.0 0.00 0.05 0.05 75 1015.3
20260507214932 54 344 1.0 2.0 0.00 0.05 0.05 75 1015.3
20260507214433 54 344 1.0 2.0 0.00 0.05 0.05 75 1015.3
20260507213934 54 344 2.0 2.0 0.00 0.05 0.05 75 1015.2
20260507213434 54 344 2.0 2.0 0.00 0.05 0.05 76 1015.2
20260507212932 54 344 1.0 2.0 0.00 0.05 0.05 76 1015.2
20260507212726 54 344 1.0 2.0 0.00 0.05 0.05 77 1015.2
20260507211934 54 344 1.0 2.0 0.00 0.05 0.05 77 1015.2
20260507211432 54 344 1.0 2.0 0.00 0.05 0.05 77 1015.2
20260507210933 54 344 1.0 2.0 0.00 0.05 0.05 77 1015.3
20260507210747 54 344 1.0 2.0 0.00 0.05 0.05 78 1015.2
20260507210743 54 344 1.0 2.0 0.00 0.05 0.05 78 1015.2
20260507205433 54 344 2.0 3.0 0.00 0.05 0.05 79 1015.3
20260507204935 54 344 2.0 3.0 0.00 0.05 0.05 79 1015.3
20260507204437 54 354 1.0 2.0 0.00 0.05 0.05 79 1015.3
20260507204220 54 354 1.0 3.0 0.00 0.05 0.05 79 1015.3
20260507203433 54 354 1.0 3.0 0.00 0.05 0.05 79 1015.3
20260507202932 54 354 1.0 2.0 0.00 0.05 0.05 80 1015.3
20260507202432 54 354 2.0 4.0 0.00 0.05 0.05 80 1015.3
20260507201933 54 337 2.0 4.0 0.00 0.05 0.05 80 1015.2
20260507201432 54 347 1.0 2.0 0.00 0.05 0.05 81 1015.2
20260507200934 54 347 1.0 3.0 0.00 0.05 0.05 81 1015.1
20260507200433 54 347 1.0 3.0 0.00 0.05 0.05 81 1014.9
20260507195933 54 347 1.0 2.0 0.00 0.05 0.05 80 1015.0
20260507195720 54 347 1.0 2.0 0.00 0.05 0.05 80 1015.0
20260507194934 54 347 2.0 2.0 0.00 0.05 0.05 80 1014.9
20260507194453 54 347 1.0 2.0 0.00 0.05 0.05 80 1014.9
20260507194339 54 347 1.0 2.0 0.00 0.05 0.05 80 1014.9
20260507193641 54 347 1.0 3.0 0.00 0.05 0.05 80 1014.9
20260507192932 54 347 2.0 3.0 0.00 0.05 0.05 80 1014.9
20260507192434 54 347 1.0 3.0 0.00 0.05 0.05 80 1014.9
20260507191932 54 347 1.0 2.0 0.00 0.05 0.05 80 1014.9
20260507191433 54 347 2.0 2.0 0.00 0.05 0.05 80 1015.0
20260507191230 54 347 2.0 3.0 0.00 0.05 0.05 80 1015.0
20260507190533 54 334 1.0 3.0 0.00 0.05 0.05 80 1014.8
20260507190507 54 347 1.0 3.0 0.00 0.05 0.05 80 1014.8
20260507185712 54 334 2.0 3.0 0.00 0.05 0.05 80 1014.8
20260507184935 55 331 1.0 3.0 0.00 0.05 0.05 80 1014.8
20260507184436 55 331 2.0 3.0 0.00 0.05 0.05 80 1014.8
20260507183938 55 337 2.0 3.0 0.00 0.05 0.05 79 1014.9
20260507183434 55 336 2.0 3.0 0.00 0.05 0.05 79 1015.0
20260507182945 55 336 2.0 3.0 0.00 0.05 0.05 79 1015.0
20260507182432 55 326 2.0 3.0 0.00 0.05 0.05 79 1014.9
20260507181933 55 326 2.0 2.0 0.00 0.05 0.05 79 1015.0
20260507181433 55 326 2.0 3.0 0.00 0.05 0.05 79 1014.9
20260507180933 55 326 1.0 3.0 0.00 0.05 0.05 79 1014.8
20260507180434 55 326 1.0 3.0 0.00 0.05 0.05 79 1014.9
20260507175933 55 327 2.0 2.0 0.00 0.05 0.05 79 1015.0
20260507175716 56 327 2.0 2.0 0.00 0.05 0.05 79 1015.0
20260507174933 55 327 2.0 3.0 0.00 0.05 0.05 78 1014.9
20260507174437 56 327 2.0 3.0 0.00 0.05 0.05 78 1015.0
20260507173934 56 23 2.0 3.0 0.00 0.05 0.05 78 1015.1
20260507173443 56 23 1.0 2.0 0.00 0.05 0.05 79 1015.0
20260507172937 56 23 2.0 2.0 0.00 0.05 0.05 79 1014.9
20260507172433 56 23 2.0 2.0 0.00 0.05 0.05 78 1015.0
20260507171932 56 23 2.0 3.0 0.00 0.05 0.05 77 1015.0
20260507171436 57 273 1.0 3.0 0.00 0.05 0.05 77 1015.0
20260507170945 57 306 1.0 3.0 0.00 0.05 0.05 77 1014.9
20260507170737 57 22 1.0 3.0 0.00 0.05 0.05 76 1014.9
20260507170240 57 274 1.0 4.0 0.00 0.05 0.05 76 1014.8
20260507165952 57 274 1.0 4.0 0.00 0.05 0.05 76 1014.9
20260507164933 57 268 1.0 3.0 0.00 0.05 0.05 76 1014.7
20260507164433 58 267 1.0 3.0 0.00 0.05 0.05 76 1014.8
20260507163937 58 127 1.0 2.0 0.00 0.05 0.05 76 1014.8
20260507163432 58 127 1.0 4.0 0.00 0.05 0.05 76 1014.9
20260507162933 58 127 1.0 4.0 0.00 0.05 0.05 75 1014.8
20260507162436 58 137 1.0 4.0 0.00 0.05 0.05 76 1014.8
20260507161932 58 129 1.0 5.0 0.00 0.05 0.05 76 1014.8
20260507161433 58 182 1.0 5.0 0.00 0.05 0.05 75 1014.8
20260507160932 58 232 2.0 3.0 0.00 0.05 0.05 75 1014.9
20260507160433 58 178 2.0 4.0 0.00 0.05 0.05 75 1014.9
20260507155934 59 75 1.0 4.0 0.00 0.05 0.05 75 1014.9
20260507155747 59 172 2.0 7.0 0.00 0.05 0.05 74 1014.9
20260507155743 59 86 2.0 7.0 0.00 0.05 0.05 74 1014.9
20260507154711 59 144 2.0 7.0 0.00 0.05 0.05 75 1015.0
20260507153923 59 154 1.0 7.0 0.00 0.05 0.05 75 1015.1
20260507153456 58 162 3.0 8.0 0.00 0.05 0.05 73 1015.0
20260507153441 58 156 2.0 8.0 0.00 0.05 0.05 74 1015.0
20260507152412 58 119 2.0 8.0 0.00 0.05 0.05 76 1014.9
20260507151912 58 125 1.0 3.0 0.00 0.05 0.05 76 1015.0
20260507151413 58 141 1.0 6.0 0.00 0.05 0.05 76 1015.0
20260507150911 58 193 2.0 7.0 0.00 0.05 0.05 77 1015.0
20260507150451 58 184 2.0 7.0 0.00 0.05 0.05 76 1014.9
20260507150428 58 152 2.0 7.0 0.00 0.05 0.05 76 1014.9
20260507145412 59 213 2.0 7.0 0.00 0.05 0.05 76 1015.0
20260507144914 59 208 2.0 6.0 0.00 0.05 0.05 76 1015.0
20260507144413 59 119 2.0 4.0 0.00 0.05 0.05 77 1015.0
20260507143912 58 235 2.0 8.0 0.00 0.05 0.05 76 1015.1
20260507143647 58 168 3.0 8.0 0.00 0.05 0.05 76 1015.1